シャルネツキー彗星

C/2024 N3 ( Sarneczky )

English version
Home page
Updated on October 1, 2025

---------------------------------------------------------------------

・ プロフィール

発見日 2024年7月8日
発見光度 19.6等
発見者 Krisztian Sarneczky (Piszkesteto Observatory in Hungary)

・ 写真集

・ 軌道要素

Epoch 2025 May 5.0 TT = JDT 2460800.5
T 2025 Apr. 11.42036 TT                                 Pike
q   5.0145770            (2000.0)            P               Q
z  -0.0002580      Peri.   86.88303     -0.01497019     -0.12965032
 +/-0.0000013      Node    82.60873     -0.34500359     -0.92999372
e   1.0012936      Incl.   88.72896     +0.93848198     -0.34395126
From 476 observations 2023 Oct. 9-2025 Aug. 3, mean residual 0".5.

・ 光度変化

        m1 = 0.0 + 5 logΔ + 20.0 log r(t - 100)

---------------------------------------------------------------------

軌道要素はM.P.E.C. 2025-P113に掲載されたものです。
光度グラフはComet for Windowsで作成したものです。

---------------------------------------------------------------------

Copyright(C) Seiichi Yoshida (comet@aerith.net). All rights reserved.